Back to catalog

STARLINK-32722

AliveCommunicationsVLEO
NORAD 62450·PAYLOAD·🇺🇸 United States

Launched Dec 29, 2024 from Vandenberg Space Force Base

Loading…

Next Passes (next 24 hours)

TLE

FreshSource: CelesTrak SupGP

Epoch: Sep 14, 2026, 20:53 UTC

1 62450C 24251U   26257.87062500  .00000220  00000+0  65030-5 0  2570
2 62450  53.1578 173.9419 0001332  92.3587 135.8884 15.34369256    17

Track STARLINK-32722 in real time with AllMySat

Download on the App Store